Вернуться в каталог

COSMOS 1638

АктивенВоенныеLEO
NORAD 15620·PAYLOAD·🇷🇺 Russia

Запущен Mar 21, 1985 с Plesetsk Cosmodrome

Loading…

Ближайшие Пролёты (ближайшие 24 часа)

TLE

СвежийSource: Space-Track

Эпоха: Sep 14, 2026, 19:50 UTC

1 15620U 85023D   26257.82699362 -.00000019  00000-0 -21740-4 0  9999
2 15620  74.0527 277.6813 0015339  25.3176 146.9229 12.49215788891929

Отслеживайте COSMOS 1638 в реальном времени с AllMySat

Download on the App Store